[[{"header":{"parameterUnit":"m.s-1","parameterCategory":1,"la1":30.2991,"la2":30.254,"lo1":-89.0895,"lo2":-89.0444,"dy":0.0017,"dx":0.0017,"nx":28,"ny":28,"refTime":"2023-08-17T03:00:00:Z","depth":0,"parameterNumber":2,"parameterNumberName":"U-component_of_WINDS"},"data":[0,0,0,0,0,0,0,0,0,0,0,0,0,0,0,0,0,0,0,0,0,0,0,0,0,0,0,0,0,0,0,0,0,0,0,0,0,0,0,0,0,0,0,0,0,0,0,0,0,0,0,0,0,0,0,0,0,0,0.3665,0.3665,0,0.3703,0.3703,0.3704,0.3798,0.38,0.3802,0.3804,0.384,0.384,0.3839,0,0,0,0,0,0,0,0,0,0,0,0,0,0.3672,0.3671,0.3665,0.3665,0.3666,0.3703,0.3703,0.3704,0.3797,0.38,0.3802,0.3805,0.3841,0.384,0.3839,0,0,0,0,0,0,0,0,0,0,0,0,0,0.3685,0.3671,0.3665,0.3717,0.3722,0.3703,0.3703,0.3704,0.3797,0.38,0.3803,0.3806,0.3841,0.384,0.3838,0.3771,0,0,0.3834,0.3834,0,0,0,0,0,0,0,0,0.3684,0.3685,0.3709,0.3713,0.3719,0.3749,0.3719,0.3726,0.3796,0.3768,0.3804,0.3807,0.3807,0.3809,0.381,0.3773,0.3774,0.3834,0.3834,0.3833,0.3833,0,0,0,0,0,0,0,0.3683,0.3683,0.368,0.3709,0.3715,0.3738,0.3743,0.3721,0.3771,0.3771,0.3778,0.3781,0.3811,0.3811,0.3811,0.3775,0.3834,0.3833,0.3832,0.3832,0.3685,0.3682,0,0,0,0,0,0,0.3675,0.3682,0.3679,0.3681,0.3709,0.3735,0.3741,0.3736,0.3771,0.3779,0.3779,0.3786,0.3811,0.3812,0.3813,0.3737,0.3833,0.3832,0.3831,0.3688,0.3684,0.3681,0,0,0,0,0,0,0.3675,0.3674,0.3677,0.3683,0.3686,0.3732,0.3726,0.3735,0.3735,0.3777,0.3786,0.377,0.3814,0.3815,0.3781,0.3739,0.3831,0.383,0.3692,0.3687,0.3683,0.3583,0,0,0,0,0,0,0.3674,0.3673,0.3648,0.3682,0.3685,0.3645,0.3723,0.3734,0.3733,0.3742,0.3771,0.3778,0.3816,0.3782,0.378,0.3739,0.3829,0.3696,0.369,0.3684,0.3591,0.3576,0.3563,0,0,0,0,0,0.3674,0.3618,0.3646,0.3645,0.3655,0.3642,0.3644,0.3689,0.3729,0.3705,0.3732,0.3778,0.3744,0.3778,0.3776,0.3734,0.3699,0.3691,0.3685,0.3597,0.3579,0.3564,0,0,0,0,0,0,0.3577,0.3623,0.3655,0.3609,0.3621,0.3658,0.3629,0.3668,0.3669,0.3678,0.3733,0.3738,0.3697,0.3712,0.3749,0.3671,0.3729,0.3721,0.3663,0.3646,0.3633,0.363,0.3828,0,0,0,0,0,0.355,0.3537,0.3578,0.3532,0.3537,0.3581,0.3578,0.3611,0.3626,0.3631,0.3656,0.3668,0.366,0.3654,0.3649,0.3593,0.3601,0.3563,0.355,0.3538,0.3531,0.3503,0.3487,0.3658,0.3658,0.3658,0,0,0.3494,0.3518,0.3506,0.3514,0.3527,0.3512,0.3585,0.3565,0.3554,0.3628,0.3599,0.3616,0.3634,0.3589,0.357,0.36,0.3486,0.3529,0.352,0.3519,0.3494,0.3478,0.3464,0.3653,0.3654,0.3655,0,0,0.3385,0.3402,0.3366,0.3379,0.3398,0.3428,0.342,0.3451,0.3466,0.3437,0.3493,0.348,0.3465,0.3475,0.3479,0.3373,0.3416,0.337,0.3299,0.3271,0.3258,0.3246,0.3209,0.3195,0.3362,0.3362,0.3362,0,0.3314,0.3293,0.3343,0.332,0.3322,0.3389,0.3353,0.3362,0.3379,0.3378,0.3412,0.3395,0.3411,0.337,0.3344,0.3344,0.3336,0.3367,0.3256,0.3245,0.3234,0.32,0.3186,0.3357,0.3357,0.3358,0.3358,0,0.3204,0.3189,0.3158,0.3173,0.3171,0.3142,0.3187,0.3179,0.3212,0.3239,0.3208,0.323,0.3231,0.3224,0.3256,0.3187,0.3205,0.3246,0.3305,0.3212,0.318,0.3167,0.3349,0.3351,0.3352,0.3354,0,0,0.3035,0.3079,0.3067,0.3075,0.3102,0.3091,0.3064,0.3066,0.3058,0.3067,0.3047,0.3033,0.3072,0.3075,0.3109,0.3084,0.3,0.3129,0.313,0.3105,0.2926,0.2896,0.288,0.3028,0.3026,0.3024,0.2925,0,0.2933,0.2892,0.2936,0.2885,0.2872,0.2935,0.2912,0.2925,0.2949,0.2941,0.2967,0.2956,0.3008,0.301,0.2989,0.3015,0.2965,0.3023,0.301,0.3009,0.3004,0.2863,0.2831,0.2736,0.2913,0.2911,0.2909,0,0.2809,0.2814,0.2761,0.2792,0.2788,0.2767,0.2773,0.2764,0.278,0.2799,0.2803,0.2844,0.282,0.2877,0.2845,0.2883,0.288,0.2892,0.289,0.2891,0.2954,0.2861,0.2707,0.2693,0.289,0.2892,0.2893,0,0.2692,0.2685,0.2653,0.2658,0.2693,0.2676,0.269,0.271,0.2708,0.2712,0.2712,0.2713,0.2714,0.2713,0.2754,0.2791,0.2716,0.2776,0.2731,0.273,0.2713,0.2714,0.2557,0.2709,0.271,0.271,0.271,0,0.2574,0.254,0.2601,0.2582,0.2545,0.2596,0.2558,0.2578,0.2595,0.258,0.2634,0.2619,0.2673,0.2663,0.2694,0.2663,0.2663,0.2677,0.2686,0.2673,0.2671,0.2673,0.2681,0.2706,0.2707,0.2708,0.2708,0,0.2438,0.2477,0.2447,0.2483,0.2491,0.2462,0.2493,0.2476,0.2503,0.2484,0.2482,0.2524,0.2516,0.2556,0.2554,0.2575,0.2528,0.2548,0.2523,0.2529,0.2482,0.2486,0.2322,0.2303,0.2466,0.2464,0.2463,0,0.2361,0.2336,0.2369,0.2364,0.2375,0.2365,0.2364,0.2412,0.2409,0.2426,0.2407,0.2403,0.2403,0.2386,0.2416,0.2415,0.2436,0.2378,0.2436,0.2424,0.2436,0.2437,0.2435,0.2366,0.2364,0.2362,0.2361,0,0.222,0.2241,0.2238,0.2241,0.2239,0.2243,0.2252,0.2244,0.2296,0.229,0.2282,0.2282,0.228,0.2276,0.2281,0.2295,0.2336,0.2343,0.2332,0.2319,0.2306,0.2313,0.2491,0.2346,0.2348,0.2349,0.235,0.235,0.2111,0.2093,0.2114,0.2108,0.212,0.2127,0.2113,0.2139,0.2133,0.2137,0.2165,0.2152,0.217,0.2181,0.2191,0.2181,0.2208,0.2193,0.2189,0.2185,0.2177,0.2307,0.2182,0.2182,0.2183,0.2183,0.2183,0,0.1974,0.1991,0.1985,0.1996,0.1992,0.2032,0.2043,0.2037,0.2025,0.2038,0.2037,0.2028,0.2024,0.2054,0.2054,0.204,0.2059,0.2039,0.2041,0.2043,0.2152,0.2162,0.2023,0.2023,0.2023,0.2023,0.2023,0.2023,0.1902,0.1873,0.1896,0.1874,0.189,0.1879,0.1882,0.1888,0.1899,0.1887,0.1885,0.1904,0.1924,0.1926,0.1924,0.1933,0.193,0.1903,0.1918,0.202,0.2035,0.205,0.206,0.1902,0.1902,0.181,0.181,0.1809]},{"header":{"parameterUnit":"m.s-1","parameterCategory":1,"la1":30.2991,"la2":30.254,"lo1":-89.0895,"lo2":-89.0444,"dy":0.0017,"dx":0.0017,"nx":28,"ny":28,"refTime":"2023-08-17T03:00:00:Z","depth":0,"parameterNumber":3,"parameterNumberName":"V-component_of_WINDS"},"data":[0,0,0,0,0,0,0,0,0,0,0,0,0,0,0,0,0,0,0,0,0,0,0,0,0,0,0,0,0,0,0,0,0,0,0,0,0,0,0,0,0,0,0,0,0,0,0,0,0,0,0,0,0,0,0,0,0,0,1.3836,1.3835,0,1.3777,1.3776,1.3775,1.3717,1.3717,1.3716,1.3715,1.3655,1.3654,1.3653,0,0,0,0,0,0,0,0,0,0,0,0,0,1.3899,1.3898,1.3836,1.3835,1.3835,1.3777,1.3776,1.3775,1.3717,1.3716,1.3716,1.3715,1.3655,1.3654,1.3653,0,0,0,0,0,0,0,0,0,0,0,0,0,1.3859,1.3897,1.3836,1.3799,1.3795,1.3777,1.3776,1.3775,1.3718,1.3716,1.3715,1.3714,1.3655,1.3654,1.3653,1.3667,0,0,1.3649,1.3648,0,0,0,0,0,0,0,0,1.3861,1.3856,1.3805,1.3801,1.3797,1.3753,1.3776,1.3739,1.3718,1.3747,1.3715,1.3714,1.3689,1.3684,1.3676,1.3665,1.3662,1.3649,1.3648,1.3647,1.3647,0,0,0,0,0,0,0,1.3864,1.3859,1.3813,1.3804,1.3799,1.3785,1.3778,1.3769,1.3725,1.3744,1.374,1.3734,1.3686,1.3677,1.3674,1.3661,1.3649,1.3648,1.3647,1.3646,1.3656,1.3657,0,0,0,0,0,0,1.3872,1.3861,1.3814,1.3811,1.3827,1.3785,1.3777,1.3768,1.3725,1.3717,1.3735,1.3731,1.368,1.3676,1.3672,1.3683,1.3647,1.3646,1.3645,1.3655,1.3656,1.3658,0,0,0,0,0,0,1.3874,1.3869,1.3817,1.3835,1.3827,1.3785,1.3776,1.3768,1.3759,1.3718,1.3709,1.3734,1.3679,1.3674,1.3668,1.368,1.3645,1.3644,1.3654,1.3655,1.3657,1.3708,0,0,0,0,0,0,1.3876,1.387,1.3875,1.3835,1.3826,1.3815,1.3777,1.3767,1.3757,1.3751,1.3714,1.3707,1.3678,1.3671,1.3667,1.3678,1.3643,1.3652,1.3655,1.3656,1.3705,1.3711,1.3717,0,0,0,0,0,1.3878,1.3892,1.3875,1.387,1.3832,1.3816,1.381,1.3776,1.3758,1.3762,1.3736,1.3708,1.368,1.3671,1.3666,1.3677,1.3652,1.3654,1.3656,1.3703,1.371,1.3717,0,0,0,0,0,0,1.3935,1.3886,1.3867,1.3869,1.3847,1.3806,1.381,1.3785,1.3768,1.3764,1.3722,1.3714,1.3713,1.3695,1.3685,1.3687,1.3662,1.3664,1.3699,1.3706,1.3711,1.3714,1.3642,0,0,0,0,0,1.3947,1.3938,1.3896,1.3902,1.3892,1.3853,1.3845,1.382,1.3796,1.3786,1.3759,1.3736,1.3722,1.3713,1.3698,1.3703,1.3693,1.3708,1.3714,1.3719,1.372,1.3719,1.3724,1.3665,1.3665,1.3665,0,0,1.3973,1.3946,1.3942,1.3912,1.3892,1.3883,1.3846,1.3838,1.383,1.3785,1.3777,1.3757,1.3728,1.3728,1.3726,1.3712,1.3734,1.3722,1.3726,1.3724,1.3722,1.3727,1.3732,1.3667,1.3667,1.3667,0,0,1.4014,1.3994,1.3994,1.3975,1.3945,1.3919,1.392,1.3882,1.3867,1.3859,1.3824,1.3814,1.3791,1.3772,1.3759,1.3792,1.3766,1.3789,1.3818,1.3817,1.3822,1.3825,1.3835,1.3839,1.3791,1.3791,1.3791,0,1.405,1.4034,1.3998,1.3992,1.3979,1.3938,1.3937,1.392,1.3887,1.3879,1.3864,1.3833,1.3811,1.3804,1.3812,1.3804,1.3802,1.3791,1.3824,1.3827,1.383,1.3839,1.3843,1.3794,1.3793,1.3793,1.3793,0,1.4078,1.4068,1.4072,1.404,1.4028,1.4025,1.3988,1.398,1.3957,1.3933,1.3924,1.3897,1.3874,1.3871,1.3849,1.386,1.3852,1.3832,1.3805,1.3839,1.3846,1.3849,1.3797,1.3796,1.3796,1.3795,0,0,1.4151,1.4099,1.4101,1.4085,1.4049,1.404,1.4035,1.4012,1.4005,1.3984,1.3977,1.3959,1.3939,1.3924,1.3899,1.3899,1.3924,1.3878,1.3877,1.3885,1.3932,1.3946,1.395,1.3907,1.3908,1.3908,1.3933,0,1.4184,1.4171,1.4139,1.4136,1.4125,1.4086,1.4081,1.4058,1.4035,1.4022,1.3997,1.3983,1.396,1.395,1.3948,1.3921,1.3932,1.392,1.3899,1.3898,1.3904,1.3954,1.3969,1.3994,1.3936,1.3937,1.3937,0,1.422,1.42,1.4196,1.4159,1.4153,1.4149,1.4125,1.4114,1.4086,1.407,1.4053,1.4026,1.4017,1.3995,1.3981,1.3973,1.3963,1.3948,1.3948,1.3943,1.3918,1.3947,1.4001,1.4004,1.3941,1.3941,1.3941,0,1.427,1.4242,1.4236,1.4224,1.4181,1.4179,1.4161,1.4133,1.4121,1.41,1.4092,1.4071,1.4059,1.4043,1.401,1.3997,1.3999,1.3974,1.3983,1.3984,1.3983,1.3983,1.4034,1.3982,1.3982,1.3982,1.3982,0,1.4308,1.4306,1.4257,1.4253,1.4249,1.4212,1.421,1.4189,1.4164,1.4154,1.412,1.4111,1.407,1.4056,1.4031,1.4022,1.4018,1.4003,1.3996,1.4004,1.4006,1.3995,1.3991,1.3983,1.3983,1.3983,1.3982,0,1.4361,1.4329,1.4319,1.4279,1.4269,1.4268,1.4234,1.4228,1.4204,1.4192,1.4187,1.4148,1.413,1.4097,1.407,1.4053,1.4048,1.4038,1.4057,1.4052,1.4062,1.4061,1.4105,1.4108,1.4057,1.4058,1.4058,0,1.4386,1.4384,1.4344,1.4335,1.4318,1.4304,1.4291,1.4255,1.4244,1.4212,1.4209,1.4189,1.417,1.4144,1.4113,1.4092,1.4078,1.4095,1.4075,1.4083,1.4075,1.4075,1.4073,1.4099,1.41,1.4101,1.4101,0,1.4433,1.4416,1.44,1.4377,1.4363,1.4344,1.4322,1.4317,1.4276,1.4264,1.4245,1.4231,1.4203,1.4182,1.4157,1.4138,1.4112,1.4108,1.4109,1.4116,1.4126,1.4118,1.4067,1.4107,1.4106,1.4106,1.4105,1.4105,1.447,1.4465,1.4436,1.4418,1.4399,1.4379,1.4371,1.4346,1.4329,1.4303,1.4284,1.4266,1.4238,1.42,1.4183,1.4168,1.4156,1.4158,1.4157,1.4157,1.416,1.4131,1.4164,1.4164,1.4163,1.4163,1.4163,0,1.4512,1.4492,1.4476,1.4447,1.4432,1.4411,1.4386,1.4375,1.436,1.4336,1.4318,1.4296,1.4276,1.4244,1.4221,1.4215,1.4202,1.421,1.4208,1.4204,1.4173,1.4174,1.422,1.422,1.422,1.422,1.422,1.422,1.4532,1.4522,1.4503,1.4482,1.4462,1.4444,1.4431,1.4413,1.4394,1.437,1.4353,1.4333,1.4305,1.4279,1.426,1.4251,1.4242,1.4253,1.424,1.4212,1.4206,1.4201,1.4201,1.4252,1.4253,1.4272,1.4272,1.4272]}]]